Weather History for Colby, KS

Change the Weather History Date:

Wednesday, February 20, 2013

  Actual Average (KGLD) Record (KGLD)
Temperature  
Mean Temperature 24 °F 34 °F  
Max Temperature 26 °F 47 °F 73 °F (1972)
Min Temperature 23 °F 20 °F -1 °F (1953)
Degree Days  
Heating Degree Days 40 32  
Month to date heating degree days 674  
Since 1 July heating degree days 4177  
Cooling Degree Days 0 0  
Month to date cooling degree days 0  
Year to date cooling degree days 0  
Moisture  
Dew Point 22 °F    
Average Humidity 91    
Maximum Humidity 100    
Minimum Humidity 64    
Precipitation  
Precipitation 0.00 in 0.02 in 0.42 in (1953)
Month to date precipitation 0.32  
Year to date precipitation 0.70  
Snow  
Snow 0.00 in 0.20 in - ()
Month to date snowfall 4.1  
Since 1 July snowfall 22.7  
Snow Depth -    
Sea Level Pressure  
Sea Level Pressure 29.92 in    
Wind  
Wind Speed 20 mph (ESE)    
Max Wind Speed 28 mph    
Max Gust Speed 33 mph    
Visibility 4 miles    
Events Snow    
T = Trace of Precipitation, MM = Missing Value Source: NWS Daily Summary

Daily Weather History Graph

Daily Weather History Graph

Search for Another Location

Airport:

Trip Planner

Search our weather history database for the weather conditions in past years. The results will help you decide how hot, cold, wet, or windy it might be!

Date:

Astronomy

Feb. 20, 2013 Rise Set
Actual Time 7:29 AM CST 6:26 PM CST
Civil Twilight 7:02 AM CST 6:54 PM CST
Nautical Twilight 6:30 AM CST 7:25 PM CST
Astronomical Twilight 5:59 AM CST 7:56 PM CST
Moon 1:50 PM CST (2/20) 3:50 AM CST (2/20)
Length of Visible Light 11h 52m
Length of Day
10h 57m
Waxing Gibbous, 76% of the Moon is Illuminated
Feb 20
Waxing Gibbous
Feb 25
Full
Mar 4
Last Quarter
Mar 11
New
Mar 19
First Quarter

Hourly Weather History & Observations

Time (CST) Temp. Windchill Dew Point Humidity Pressure Visibility Wind Dir Wind Speed Gust Speed Precip Events Conditions
12:15 AM 24.8 °F 11.9 °F 19.4 °F 80% 30.04 in 10.0 mi ESE 16.1 mph - N/A   Clear
12:35 AM 24.8 °F 11.9 °F 19.4 °F 80% 30.04 in 10.0 mi ESE 16.1 mph - N/A   Clear
12:55 AM 24.8 °F 12.4 °F 19.4 °F 80% 30.03 in 10.0 mi ESE 15.0 mph - N/A   Clear
1:15 AM 23.0 °F 9.2 °F 17.6 °F 80% 30.02 in 10.0 mi ESE 17.3 mph - N/A   Clear
1:35 AM 23.0 °F 10.1 °F 17.6 °F 80% 30.03 in 10.0 mi ESE 15.0 mph - N/A   Clear
1:55 AM 24.8 °F 11.1 °F 17.6 °F 74% 30.02 in 10.0 mi ESE 18.4 mph - N/A   Clear
2:15 AM 26.6 °F 12.4 °F 17.6 °F 69% 30.02 in 10.0 mi ESE 21.9 mph 27.6 mph N/A   Clear
2:35 AM 26.6 °F 12.4 °F 15.8 °F 64% 30.02 in 10.0 mi ESE 21.9 mph 28.8 mph N/A   Clear
2:55 AM 24.8 °F 9.6 °F 15.8 °F 69% 30.01 in 10.0 mi ESE 23.0 mph 28.8 mph N/A   Clear
3:15 AM 24.8 °F 10.0 °F 14.0 °F 64% 30.00 in 10.0 mi ESE 21.9 mph 27.6 mph N/A   Clear
3:35 AM 24.8 °F 9.6 °F 14.0 °F 64% 29.99 in 10.0 mi ESE 23.0 mph 27.6 mph N/A   Clear
3:55 AM 23.0 °F 7.6 °F 14.0 °F 68% 29.98 in 10.0 mi ESE 21.9 mph 26.5 mph N/A   Clear
4:15 AM 23.0 °F 7.2 °F 14.0 °F 68% 29.97 in 10.0 mi ESE 23.0 mph 28.8 mph N/A   Clear
4:35 AM 23.0 °F 9.2 °F 14.0 °F 68% 29.98 in 10.0 mi ESE 17.3 mph 21.9 mph N/A   Clear
4:55 AM 23.0 °F 8.7 °F 14.0 °F 68% 29.98 in 10.0 mi ESE 18.4 mph - N/A   Clear
5:15 AM 23.0 °F 7.2 °F 14.0 °F 68% 29.97 in 10.0 mi ESE 23.0 mph 28.8 mph N/A   Mostly Cloudy
5:35 AM 23.0 °F 8.0 °F 14.0 °F 68% 29.97 in 10.0 mi ESE 20.7 mph - N/A   Overcast
6:15 AM 23.0 °F 7.2 °F 14.0 °F 68% 29.97 in 10.0 mi ESE 23.0 mph 27.6 mph N/A   Overcast
6:35 AM 23.0 °F 8.0 °F 14.0 °F 68% 29.97 in 10.0 mi ESE 20.7 mph 26.5 mph N/A   Overcast
6:55 AM 24.8 °F 9.6 °F 17.6 °F 74% 29.96 in 10.0 mi ESE 23.0 mph - N/A   Overcast
7:15 AM 23.0 °F 6.6 °F 19.4 °F 86% 29.97 in 10.0 mi ESE 25.3 mph 32.2 mph N/A   Overcast
7:35 AM 23.0 °F 6.9 °F 21.2 °F 93% 29.96 in 10.0 mi ESE 24.2 mph 33.4 mph N/A   Overcast
7:55 AM 23.0 °F 6.6 °F 21.2 °F 93% 29.96 in 5.0 mi SE 25.3 mph 28.8 mph N/A Snow Light Snow
8:15 AM 23.0 °F 8.0 °F 21.2 °F 93% 29.96 in 5.0 mi ESE 20.7 mph 28.8 mph N/A Snow Light Snow
8:35 AM 23.0 °F 8.0 °F 21.2 °F 93% 29.97 in 5.0 mi ESE 20.7 mph 26.5 mph N/A Snow Light Snow
8:55 AM 23.0 °F 8.3 °F 23.0 °F 100% 29.97 in 3.0 mi ESE 19.6 mph 25.3 mph N/A Snow Light Snow
9:35 AM 23.0 °F 8.3 °F 23.0 °F 100% 29.97 in 3.0 mi ESE 19.6 mph - N/A Snow Light Snow
9:55 AM 23.0 °F 9.2 °F 23.0 °F 100% 29.97 in 3.0 mi ESE 17.3 mph 26.5 mph N/A Snow Light Snow
10:15 AM 23.0 °F 8.0 °F 23.0 °F 100% 29.97 in 2.0 mi ESE 20.7 mph 26.5 mph N/A Snow Light Snow
10:35 AM 23.0 °F 8.0 °F 23.0 °F 100% 29.96 in 4.0 mi ESE 20.7 mph - N/A Snow Light Snow
10:55 AM 24.8 °F 11.5 °F 24.8 °F 100% 29.95 in 2.5 mi ESE 17.3 mph 25.3 mph N/A Snow Light Snow
11:15 AM 24.8 °F 10.7 °F 23.0 °F 93% 29.95 in 4.0 mi ESE 19.6 mph 25.3 mph N/A Snow Light Snow
11:35 AM 26.6 °F 13.1 °F 24.8 °F 93% 29.95 in 2.0 mi ESE 19.6 mph 29.9 mph N/A Snow Light Snow
11:55 AM 24.8 °F 10.0 °F 24.8 °F 100% 29.95 in 0.5 mi ESE 21.9 mph 27.6 mph N/A Snow Snow
12:15 PM 23.0 °F 6.9 °F 23.0 °F 100% 29.94 in 0.2 mi ESE 24.2 mph 28.8 mph N/A Snow Heavy Snow
12:35 PM 23.0 °F 7.6 °F 23.0 °F 100% 29.93 in 0.2 mi ESE 21.9 mph 26.5 mph N/A Snow Heavy Snow
12:55 PM 23.0 °F 8.3 °F 23.0 °F 100% 29.92 in 0.2 mi ESE 19.6 mph 23.0 mph N/A Snow Snow
1:15 PM 24.8 °F 9.6 °F 24.8 °F 100% 29.90 in 1.2 mi ESE 23.0 mph 29.9 mph N/A Snow Light Snow
1:35 PM 26.6 °F 11.4 °F 26.6 °F 100% 29.89 in 0.8 mi East 25.3 mph 29.9 mph N/A Snow Light Snow
1:55 PM 26.6 °F 10.8 °F 26.6 °F 100% 29.88 in 1.0 mi ESE 27.6 mph 33.4 mph N/A Snow Light Snow
2:15 PM 26.6 °F 11.7 °F 26.6 °F 100% 29.87 in 1.0 mi ESE 24.2 mph 31.1 mph N/A Snow Light Snow
2:35 PM 26.6 °F 10.8 °F 26.6 °F 100% 29.87 in 1.2 mi ESE 27.6 mph 32.2 mph N/A Snow Light Snow
2:55 PM 26.6 °F 11.4 °F 26.6 °F 100% 29.86 in 1.0 mi ESE 25.3 mph 31.1 mph N/A   Overcast
3:15 PM 26.6 °F 11.7 °F 26.6 °F 100% 29.86 in 1.0 mi ESE 24.2 mph 28.8 mph N/A   Overcast
3:35 PM 24.8 °F 9.6 °F 24.8 °F 100% 29.85 in 1.0 mi ESE 23.0 mph 32.2 mph N/A   Overcast
3:55 PM 26.6 °F 11.7 °F 26.6 °F 100% 29.86 in 0.8 mi ESE 24.2 mph 31.1 mph N/A   Overcast
4:15 PM 26.6 °F 12.4 °F 26.6 °F 100% 29.85 in 0.8 mi ESE 21.9 mph 31.1 mph N/A   Overcast
4:35 PM 26.6 °F 12.0 °F 26.6 °F 100% 29.85 in 1.0 mi ESE 23.0 mph 26.5 mph N/A   Overcast
4:55 PM 26.6 °F 12.7 °F 26.6 °F 100% 29.84 in 1.0 mi ESE 20.7 mph - N/A Snow Light Snow
5:15 PM 26.6 °F 13.4 °F 26.6 °F 100% 29.83 in 0.8 mi ESE 18.4 mph 24.2 mph N/A Snow Light Snow
5:35 PM 26.6 °F 13.4 °F 26.6 °F 100% 29.82 in 1.5 mi ESE 18.4 mph - N/A Snow Light Snow
5:55 PM 26.6 °F 13.4 °F 26.6 °F 100% 29.83 in 5.0 mi ESE 18.4 mph - N/A   Overcast
6:15 PM 26.6 °F 13.1 °F 26.6 °F 100% 29.83 in 3.0 mi ESE 19.6 mph 25.3 mph N/A Snow Light Snow
6:55 PM 26.6 °F 12.7 °F 26.6 °F 100% 29.84 in 2.5 mi ESE 20.7 mph - N/A Snow Light Snow
7:15 PM 24.8 °F 10.3 °F 24.8 °F 100% 29.84 in 0.8 mi East 20.7 mph - N/A Snow Light Snow
7:35 PM 23.0 °F 9.2 °F 23.0 °F 100% 29.85 in 0.5 mi East 17.3 mph - N/A Snow Snow
7:55 PM 23.0 °F 8.7 °F 23.0 °F 100% 29.85 in 0.5 mi ESE 18.4 mph - N/A Snow Snow
8:15 PM 23.0 °F 10.1 °F 23.0 °F 100% 29.84 in 0.5 mi East 15.0 mph - N/A Snow Snow
8:35 PM 23.0 °F 9.2 °F 23.0 °F 100% 29.84 in 0.8 mi East 17.3 mph 21.9 mph N/A Snow Light Snow
8:55 PM 23.0 °F 9.2 °F 23.0 °F 100% 29.85 in 3.0 mi East 17.3 mph - N/A Snow Light Snow
9:15 PM 23.0 °F 10.1 °F 23.0 °F 100% 29.85 in 5.0 mi East 15.0 mph 21.9 mph N/A   Overcast
9:35 PM 23.0 °F 9.2 °F 23.0 °F 100% 29.85 in 1.5 mi ESE 17.3 mph - N/A Snow Light Snow
9:55 PM 23.0 °F 8.0 °F 23.0 °F 100% 29.85 in 1.8 mi ESE 20.7 mph 24.2 mph N/A Snow Light Snow
10:15 PM 23.0 °F 8.0 °F 23.0 °F 100% 29.84 in 1.5 mi ESE 20.7 mph 24.2 mph N/A Snow Light Snow
10:35 PM 23.0 °F 7.6 °F 23.0 °F 100% 29.85 in 1.2 mi ESE 21.9 mph - N/A Snow Light Snow
10:55 PM 23.0 °F 7.6 °F 23.0 °F 100% 29.84 in 1.8 mi ESE 21.9 mph - N/A Snow Light Snow
11:15 PM 23.0 °F 7.6 °F 23.0 °F 100% 29.84 in 1.2 mi ESE 21.9 mph 27.6 mph N/A Snow Light Snow
11:35 PM 23.0 °F 8.0 °F 23.0 °F 100% 29.83 in 2.5 mi East 20.7 mph 28.8 mph N/A   Overcast
11:55 PM 23.0 °F 8.0 °F 23.0 °F 100% 29.84 in 2.5 mi ESE 20.7 mph - N/A   Overcast